TimeCDT,TemperatureF,Dew PointF,Humidity,Sea Level PressureIn,VisibilityMPH,Wind Direction,Wind SpeedMPH,Gust SpeedMPH,PrecipitationIn,Events,Conditions,WindDirDegrees,DateUTC
12:06 AM,71.6,71.6,100,29.88,9.0,East,9.2,-,N/A,,Scattered Clouds,100,2013-06-26 05:06:00
12:52 AM,72.0,70.0,93,29.86,10.0,SE,8.1,-,N/A,,Clear,130,2013-06-26 05:52:00
1:14 AM,71.6,69.8,94,29.86,10.0,ESE,11.5,-,N/A,,Partly Cloudy,120,2013-06-26 06:14:00
1:52 AM,72.0,70.0,93,29.82,10.0,ESE,9.2,-,N/A,,Clear,120,2013-06-26 06:52:00
2:52 AM,73.0,71.1,93,29.80,10.0,SSE,9.2,-,N/A,,Clear,150,2013-06-26 07:52:00
3:52 AM,73.9,72.0,93,29.80,10.0,SSE,9.2,-,N/A,,Scattered Clouds,160,2013-06-26 08:52:00
4:52 AM,75.0,72.0,90,29.78,10.0,South,13.8,-,0.00,Rain,Light Rain,170,2013-06-26 09:52:00
5:41 AM,75.2,71.6,89,29.77,10.0,NW,16.1,20.7,0.01,,Mostly Cloudy,310,2013-06-26 10:41:00
5:52 AM,79.0,70.0,74,29.74,10.0,SW,11.5,28.8,0.01,,Mostly Cloudy,230,2013-06-26 10:52:00
6:17 AM,77.0,71.6,83,29.78,10.0,WSW,8.1,-,N/A,,Mostly Cloudy,250,2013-06-26 11:17:00
6:52 AM,78.1,71.1,79,29.79,10.0,West,11.5,17.3,N/A,,Scattered Clouds,260,2013-06-26 11:52:00
7:52 AM,78.1,71.1,79,29.80,10.0,WSW,4.6,-,N/A,,Mostly Cloudy,250,2013-06-26 12:52:00
8:08 AM,75.2,71.6,89,29.82,2.5,NNW,4.6,-,N/A,Rain-Thunderstorm,Thunderstorms and Rain,330,2013-06-26 13:08:00
8:21 AM,71.6,69.8,94,29.83,3.0,North,13.8,19.6,N/A,Rain-Thunderstorm,Thunderstorms and Rain,360,2013-06-26 13:21:00
8:29 AM,71.6,69.8,94,29.84,2.0,Variable,4.6,-,N/A,Rain-Thunderstorm,Thunderstorms and Rain,0,2013-06-26 13:29:00
8:36 AM,71.6,69.8,94,29.83,2.5,NE,8.1,-,N/A,Rain-Thunderstorm,Thunderstorms and Rain,40,2013-06-26 13:36:00
8:43 AM,71.6,69.8,94,29.83,6.0,NE,6.9,-,N/A,,Overcast,40,2013-06-26 13:43:00
8:50 AM,71.6,69.8,94,29.83,2.5,East,3.5,-,0.26,,Overcast,90,2013-06-26 13:50:00
8:52 AM,71.1,70.0,96,29.83,2.5,Calm,Calm,-,0.26,Rain,Light Rain,0,2013-06-26 13:52:00
9:52 AM,72.0,71.1,97,29.81,8.0,ESE,8.1,-,0.05,Rain,Light Rain,110,2013-06-26 14:52:00
10:28 AM,71.6,69.8,94,29.81,10.0,ESE,8.1,-,0.00,,Overcast,120,2013-06-26 15:28:00
10:52 AM,72.0,70.0,93,29.81,5.0,Calm,Calm,-,0.00,Rain,Light Rain,0,2013-06-26 15:52:00
11:52 AM,72.0,71.1,97,29.81,3.0,SE,5.8,-,0.02,Rain,Light Rain,140,2013-06-26 16:52:00
12:52 PM,73.9,72.0,93,29.79,10.0,SE,4.6,-,0.00,,Overcast,140,2013-06-26 17:52:00
1:52 PM,75.0,72.0,90,29.78,10.0,SSE,8.1,-,N/A,,Overcast,150,2013-06-26 18:52:00
2:16 PM,75.2,71.6,89,29.78,10.0,SSE,8.1,-,N/A,,Overcast,150,2013-06-26 19:16:00
2:52 PM,77.0,73.9,90,29.76,10.0,SSE,9.2,-,N/A,,Overcast,160,2013-06-26 19:52:00
3:52 PM,75.9,73.0,91,29.74,10.0,Calm,Calm,-,N/A,,Overcast,0,2013-06-26 20:52:00
4:52 PM,80.1,75.0,85,29.73,10.0,Calm,Calm,-,N/A,,Overcast,0,2013-06-26 21:52:00
5:52 PM,82.0,75.0,79,29.74,10.0,Calm,Calm,-,N/A,,Overcast,0,2013-06-26 22:52:00
6:52 PM,82.0,75.9,82,29.74,10.0,West,4.6,-,N/A,,Clear,260,2013-06-26 23:52:00
7:52 PM,80.1,75.9,87,29.72,10.0,Calm,Calm,-,N/A,,Clear,0,2013-06-27 00:52:00
8:52 PM,78.1,75.9,93,29.73,10.0,Calm,Calm,-,N/A,,Clear,0,2013-06-27 01:52:00
9:52 PM,75.9,75.0,97,29.77,6.0,Calm,Calm,-,N/A,,Clear,0,2013-06-27 02:52:00
10:52 PM,75.0,75.0,100,29.78,4.0,Calm,Calm,-,N/A,,Clear,0,2013-06-27 03:52:00
11:52 PM,73.9,73.0,97,29.79,3.0,Calm,Calm,-,N/A,,Clear,0,2013-06-27 04:52:00